CW1627 Weather Reports


time (UTC)temp
C
wind
direction
speed
KPH
gust
KPH
rain 1hr
cm
rain 24hr
cm
rain mn
cm
humidity
%
barometer
mb
20260506180051 27 167 0.0 8.0 0.00 0.05 0.05 77 1010.6
20260506173050 26 69 0.0 8.0 0.00 0.05 0.05 82 1010.6
20260506170049 25 83 3.2 9.7 0.00 0.05 0.05 85 1010.8
20260506163048 25 74 6.4 8.0 0.00 0.05 0.05 87 1010.7
20260506160047 24 65 0.0 6.4 0.00 0.05 0.05 91 1010.5
20260506153046 23 48 0.0 4.8 0.05 0.05 0.05 93 1010.3
20260506150046 23 79 0.0 4.8 0.05 0.05 0.05 92 1009.8
20260506143045 23 77 0.0 3.2 0.00 0.00 0.00 89 1009.8
20260506140044 23 134 0.0 9.7 0.00 0.00 0.00 89 1009.2
20260506133043 23 143 0.0 9.7 0.00 0.00 0.00 90 1008.7
20260506130042 23 136 4.8 9.7 0.00 0.00 0.00 90 1008.4
20260506120040 23 108 0.0 9.7 0.00 0.00 0.00 90 1008.5
20260506110038 23 129 1.6 9.7 0.00 0.00 0.00 89 1008.6
20260506093036 23 202 1.6 14.5 0.00 0.00 0.00 88 1008.4
20260506090035 23 182 6.4 20.9 0.00 0.00 0.00 88 1008.2
20260506083034 23 158 4.8 19.3 0.00 0.00 0.00 88 1008.3
20260506073102 24 116 0.0 19.3 0.00 0.00 0.00 87 1008.5
20260506043057 25 144 3.2 16.1 0.00 0.00 0.00 85 1008.4
20260506040057 25 104 4.8 11.3 0.00 0.00 0.00 85 1008.1
20260506033055 25 161 3.2 17.7 0.00 0.00 0.00 84 1007.6
20260506030055 26 123 0.0 17.7 0.00 0.00 0.00 81 1007.3
20260506023054 27 109 11.3 17.7 0.00 0.00 0.00 78 1006.8
20260506020053 27 145 4.8 9.7 0.00 0.00 0.00 72 1006.6
20260506013052 28 70 3.2 11.3 0.00 0.00 0.00 71 1006.0
20260506010051 29 79 1.6 8.0 0.00 0.00 0.00 68 1005.9
20260506003050 30 158 0.0 6.4 0.00 0.00 0.00 65 1005.7
20260506000050 30 219 0.0 11.3 0.00 0.00 0.00 63 1005.6
20260505233048 32 143 0.0 8.0 0.00 0.00 0.00 58 1005.6
20260505230048 31 214 8.0 16.1 0.00 0.00 0.00 58 1005.5
20260505220046 31 168 8.0 16.1 0.00 0.00 0.00 61 1005.7
20260505213045 31 115 3.2 16.1 0.00 0.00 0.00 57 1006.3
20260505210045 30 104 3.2 16.1 0.00 0.00 0.00 61 1006.6
20260505203043 30 119 4.8 16.1 0.00 0.00 0.00 63 1007.0
20260505200043 30 154 8.0 14.5 0.00 0.00 0.00 63 1007.4
20260505193041 29 216 11.3 19.3 0.00 0.00 0.00 66 1007.8
20260505190041 28 158 0.0 14.5 0.00 0.00 0.00 70 1008.1
20260505183040 26 276 3.2 19.3 0.00 0.00 0.00 74 1008.5